Warning: Javascript must be enabled to use all the features on this page!


Page Loading - Please Wait...

Click to hideNews Bulletins

Peak Streamflow for the Nation

USGS 06483000 ROCK RIVER AT LUVERNE, MN

Rock County, Minnesota
Hydrologic Unit Code 10170204
Latitude  43°39'15", Longitude  96°12'03" NAD27
Drainage area 419  square miles
Output formats
Table
Graph
Tab-separated file
peakfq (watstore) format
Reselect output format
Water
Year
Date Gage
Height
(feet)
Stream-
flow
(cfs)
1912 1911-10-07 7.14 2,000
1913 1913-05-22 4.40 434
1914 1914-06-13 13.20 11,600
1969 1969-04-08 13.13 19,5007
1972 1972-03-15 9.23 3,000
1973 1973   1,8002,Bm
1974 1974-03-04 7.201 595
1975 1975-04-14 6.20 1,750
1976 1976-03-12 5.511 980
1977 1977-03-12 7.691 2,550
1978 1978-03-21 9.781 2,980
1979 1979-04-15 8.30 2,950
1980 1979-11-03 8.00 2,680
1981 1981-06-13 5.04 628
1982 1982-02-22 7.541 870
1983 1983-04-14 8.801 2,680
1984 1984-06-25 10.532 5,650
1985 1985-03-11 9.55 3,750
1986 1986-09-22 11.11 6,400
1987 1987-03-24 6.35 1,350
1988 1988-03-22 5.84 960
1989 1989-03-24 5.40 1,250
1990 1990-05-19 5.06 965
1991 1991-06-06   3002
1992 1992-07-02 8.372 2,600
1993 1993-05-08 14.203 35,4002
1994 1994-06-13 9.35 4,260
1995 1995-04-19 8.70 3,550
1996 1996-06-18 6.54 1,690
1997 1997-03-28 11.69 13,600
1998 1998-03-29 5.21 1,080
1999 1999-04-10 6.51 1,670
2000 2000-05-19   2,6002
2001 2001-04-23 12.25 11,900
2003 2003-03-16 6.09 1,410
2004 2004-06-18 7.92 3,240
2005 2005-09-26 6.40 2,050
2006 2006-04-07 9.47 5,410
2007 2007-03-14 11.85 10,900
2008 2008-06-06   1,3002
2009 2009-02-11   5202
2010 2010-09-24 12.69 14,700
2011 2011-07-15 9.62 3,8002
2012 2012-05-07 8.64 2,830
2013 2013-06-24 8.85 3,020
2014 2014-06-17 14.86 25,0002
2015 2015-08-20 7.96 2,170
2016 2016-07-11 7.10 1,620
2017 2017-05-22 6.72 1,360
2018 2018-06-22 11.68 8,100
2019 2019-09-13 13.89 17,900
2020 2020-07-06 8.952,N 3,210
2021 2021-03-08 6.564  
?
  Peak Gage-Height Qualification Codes.
?
  Peak Streamflow Qualification Codes.